COSMOS 1691 DEB, 16268

Orbit data source: Space-Track

COSMOS 1691 DEB, 16268 is space debris in LEO originally from a launch on Wed, 09 Oct 1985 UTC launched from the Plesetsk Missile And Space Complex (PKMTR). Debris objects in space refer to the collection of defunct objects orbiting the Earth. Examples of debris include non-operational satellites, rocket bodies, and fragments generated from explosions, collisions, or faulty payload assembly.

Loading next visibility...
Identifier
16268, 1985-094M
Orbit
LEO
Country
Flag of CISCIS
Related business
Manufacturer
Unknown
Mission
Spacecraft
Bus & Motor
Unknown
Mass
Unknown
Launch date (UTC)
1985-10-09 (40 years ago)
Launch vehicle
Unknown
Launch site
Plesetsk Missile And Space Complex (PKMTR)
Object type
Payload
Rocket body
Debris
Shape & HBR
Unknown
Radar Cross Section
Small (<0.1 m²)

Expand to show TLE details & history
Last TLE update: 9 hours ago

TLE from 9 hours ago
0 COSMOS 1691 DEB
1 16268U 85094M   25242.90859385  .00000183  00000-0  10233-2 0  9994
2 16268  82.7139  20.0969 0080440  72.0848  55.1323 12.56489506820360
Epoch: 2025-08-30T21:48Z
TLE epoch observation values (Epoch: 2025-08-30T21:48:22.508Z)
Latitude
51.52551°
Longitude
-115.54507°
Altitude
1,410.098 km
Speed
7.176 km/s
True Right ascension
12h 43m 32s
True Declination
51° 22' 19"
Sunlit
Object was in daylight at epoch
Visualization orbit readout
Latitude
Unknown
Longitude
Unknown
Altitude
Unknown
Speed
Unknown
Apparent Right ascension
Unknown
Apparent Declination
Unknown
Sunlit
N/A
Visualization observer readout
Local Sidereal Time
22:06:56
Azimuth
Unknown
Elevation
Unknown
Doppler factor
Unknown
Orbital elements
Apogee altitude
1,497.639 km
Perigee altitude
1,371.944 km
Semi-major axis
7,812.929 km
Eccentricity
0.00804
Inclination
82.7139°
RAAN
20.0969°
Arg. of periapsis
72.0848°
True anomaly
55.89294°
Mean anomaly
55.1323°
Eccentric anomaly
55.51218°
Mean motion
3.14284 °/min
Orbital period
114.55 mins
BSTAR
0.0010233
Loading maneuver chart data...
Computing Atmospheric mass density...
Loading historical data...
Loading historical data...
Loading historical data...
Loading historical data...
Loading historical data...
Loading historical data...
Loading historical data...

Documentation

Showing up to 5 results
|